Preview of NWS' New Version of Forecast
This preview is not operational and should not be used for support decisions.

Regional Weather Roundup (RWR)

Issued by Fort Worth/Dallas, TX (FWD)

                            
000
ASUS44 KFWD 200915
RWRFWD
NORTH TEXAS HOURLY WEATHER ROUNDUP
NATIONAL WEATHER SERVICE FORT WORTH TX
300 AM CST WED FEB 20 2019

NOTE: "FAIR" INDICATES FEW OR NO CLOUDS BELOW 12,000 FEET WITH NO
SIGNIFICANT WEATHER AND/OR OBSTRUCTIONS TO VISIBILITY.

TXZ118-119-201000-
DALLAS/FORT WORTH METROPLEX
  
CITY           SKY/WX    TMP DP  RH WIND       PRES   REMARKS
DFW AIRPORT    CLOUDY    38  34  85 NW15      29.93R WCI  29          
DALLAS LOVE    CLOUDY    39  35  86 NW12      29.94R WCI  32          
FTW MEACHAM    CLOUDY    37  36  96 W9        29.95S WCI  30          
DAL-EXECUTIVE    N/A     37  34  89 NW17      29.92R WCI  27          
FTW-ALLIANCE   CLOUDY    38  34  85 NW10      29.94S WCI  31          
FTW-NAS-JRB    CLOUDY    39  36  89 W10       29.96R WCI  32          
FTW-SPINKS     CLOUDY    38  36  91 W8        29.97R WCI  32          
ARLINGTON      CLOUDY    39  34  82 NW12      29.95R WCI  32          
GRAND PRAIRIE  CLOUDY    38  38 100 W8        29.96S WCI  32          
ADDISON        CLOUDY    38  35  90 W8        29.96R WCI  32          
MESQUITE       CLOUDY    39  37  94 W8        29.94S WCI  33          
LANCASTER      CLOUDY    38  36  91 NW9       29.95S WCI  32          
$$

TXZ091>094-102>105-117-120-121-131>134-201000-
NORTH CENTRAL TEXAS
  
CITY           SKY/WX    TMP DP  RH WIND       PRES   REMARKS
SHRMAN/DENISON CLOUDY    37  36  96 W8        29.94R WCI  30          
GAINESVILLE    CLOUDY    36  33  90 SW10      29.97R WCI  28          
BOWIE          CLOUDY    35  32  91 W10       29.93F WCI  27          
BRIDGEPORT     CLOUDY    37  34  92 MISG      29.97F                  
DECATUR        CLOUDY    35  33  94 W9        29.94R WCI  27          
DENTON         CLOUDY    37  33  85 NW13      29.94S WCI  29          
MCKINNEY       CLOUDY    38  36  92 W14       29.94S WCI  30          
BONHAM         CLOUDY    36 N/A N/A NW5       29.92S WCI  32          
GREENVILLE     CLOUDY    41  39  93 W5        29.93S WCI  38          
ROCKWALL       CLOUDY    38  38 100 NW6       29.93S WCI  33          
TERRELL        CLOUDY    40  37  89 NW3       29.93R                  
WAXAHACHIE     CLOUDY    38  38 100 W9        29.95S WCI  31          
CLEBURNE       CLOUDY    37  37 100 NW13      29.96S WCI  29          
GRANBURY       CLOUDY    38  36  90 W10       29.98R WCI  31          
$$

TXZ083>090-098>101-113>116-127>130-139>142-154-155-201000-
WESTERN NORTH TEXAS
  
CITY           SKY/WX    TMP DP  RH WIND       PRES   REMARKS
WICHITA FALLS  CLOUDY    34  32  92 W10       29.91F WCI  26          
WF-KICKAPOO    CLOUDY    35  31  88 W6        29.95F WCI  30          
VERNON         FAIR      29  28  95 SW5       29.93S WCI  24          
ABILENE        CLOUDY    33  31  92 W9        29.94F WCI  25          
ABILENE-DYESS  CLOUDY    31  25  78 NW7       29.94S WCI  25          
BRECKENRIDGE   CLOUDY    35  33  91 NW7       29.96R WCI  29          
CISCO          CLOUDY    32  32 100 W7        29.94S WCI  26          
EASTLAND       CLOUDY    32  30  92 W7        29.96R WCI  26          
RANGER         CLOUDY    33  33  99 NW8       29.95S WCI  26          
MINERAL WELLS  CLOUDY    37  33  85 W8        29.94S WCI  31          
STEPHENVILLE   CLOUDY    36  33  92 NW7       29.97S WCI  30          
COMANCHE       CLOUDY    35  35 100 NW6       29.95F WCI  30          
BROWNWOOD      CLOUDY    36  32  87 NW6       29.96S WCI  31          
COLEMAN        CLOUDY    34  32  92 W7        29.96S WCI  28          
BRADY          CLOUDY    32  32 100 NW9       29.95S FOG     WCI  24  
$$

TXZ143>147-156>162-174-175-201000-
CENTRAL TEXAS
  
CITY           SKY/WX    TMP DP  RH WIND       PRES   REMARKS
WACO           MOCLDY    39  36  89 NW8       29.94F WCI  33          
WACO-MCGREGOR  MOCLDY    38  38 100 N7        29.94F WCI  33          
HILLSBORO      CLOUDY    39  39 100 NW10      29.94S WCI  32          
CORSICANA      CLOUDY    40  38  93 NW8       29.94S FOG     WCI  34  
MEXIA          CLOUDY    39  38  97 NW7       29.93R WCI  34          
HEARNE         CLOUDY    41  41 100 NW7       29.95S WCI  37          
CAMERON        CLOUDY    41  39  93 NW9       29.94F WCI  36          
TEMPLE         CLOUDY    40  40 100 NW7       29.94F WCI  35          
KILLEEN        CLOUDY    37  36  93 NW10      29.92S WCI  30          
KILLEEN-SKYLRK CLOUDY    39  37  92 NW8       29.94F WCI  33          
GATESVILLE     CLOUDY    37  36  93 NW14G21   29.96F WCI  29          
HAMILTON       CLOUDY    37  37 100 NW13      29.95F WCI  28          
LAMPASAS       CLOUDY    37  35  94 NW6       29.93F WCI  32          
$$

TXZ095>097-106>112-122>126-135>138-148>153-164>167-201000-
EAST TEXAS
  
CITY           SKY/WX    TMP DP  RH WIND       PRES   REMARKS
PARIS          CLOUDY    37  37 100 NW7       29.90S WCI  32          
SULPHUR SPRNGS CLOUDY    39  39  98 W8        29.95R WCI  34          
MOUNT PLEASANT CLOUDY    38  36  92 W5        29.91S WCI  34          
GILMER         CLOUDY    38  37  98 MISG      29.90S THUNDER          
MINEOLA        CLOUDY    39  37  93 NW5       29.92R WCI  36          
TYLER          CLOUDY    40  38  93 NW3       29.90R                  
LONGVIEW       LGT RAIN  39  39 100 W6        29.91R WCI  35          
MARSHALL       CLOUDY    36  35  94 CALM      29.89F                  
ATHENS         CLOUDY    39  37  93 NW3       29.92R                  
PALESTINE      CLOUDY    40  40 100 W3        29.94R                  
JACKSONVILLE   DRIZZLE   39  39 100 NW3       29.91S                  
HENDERSON      CLOUDY    38  37  97 CALM      29.91R                  
CENTER         DRIZZLE   39  38  95 N3        29.88                   
NACOGDOCHES    CLOUDY    40  40 100 NW6       29.90R WCI  36          
LUFKIN         LGT RAIN  40  40 100 NW5       29.89S WCI  37          
$$

SUPPLEMENTAL OBSERVATIONS (NWS FORT WORTH AREA)
  
CITY           SKY/WX    TMP DP  RH WIND       PRES   REMARKS
DENISON DAM      N/A     37  36  93 W18         N/A  WCI  27          
CADDO GRASSLND   N/A     37  36  93 W3          N/A                   
LBJ GRASSLAND    N/A     36  32  87 W7          N/A  WCI  30          
POSSUM KINGDOM   N/A     36  32  87 W7          N/A  WCI  30          
GRANBURY         N/A     37  36  93 W10         N/A  WCI  30          
COMANCHE         N/A     34  32  93 NW10        N/A  WCI  26          
MCGREGOR         N/A     39  34  81 NW8         N/A  WCI  34          
TEMPLE           N/A     39  34  81 NW12        N/A  WCI  32          
LAKE LIMESTONE   N/A     41  39  93 NW6         N/A  WCI  37          
ATHENS           N/A     39  37  93 NW2         N/A                   
PALESTINE        N/A     39  37  93 W2          N/A                   
$$

SUPPLEMENTAL OBSERVATIONS (NWS NORMAN AREA)
  
CITY           SKY/WX    TMP DP  RH WIND       PRES   REMARKS
MILLERS CREEK    N/A     32  28  86 SW8         N/A  WCI  25          
$$

SUPPLEMENTAL OBSERVATIONS (NWS SAN ANGELO AREA)
  
CITY           SKY/WX    TMP DP  RH WIND       PRES   REMARKS
HAMBY            N/A     32  30  93 W9          N/A  WCI  24          
IVIE RESERVOIR   N/A     34  30  86 W12         N/A  WCI  25          
COLORADO BEND    N/A     36  32  87 NW9         N/A  WCI  29          
$$

SUPPLEMENTAL OBSERVATIONS (NWS SHREVEPORT AREA)
  
CITY           SKY/WX    TMP DP  RH WIND       PRES   REMARKS
TEXARKANA        N/A     39  37  93 NW2         N/A                   
LINDEN           N/A     37  36  93 W3          N/A                   
CADDO LAKE       N/A     37  36  93 W1          N/A                   
LUFKIN           N/A     41  37  87 MISG        N/A                   
N SABINE NF      N/A     39  37  93 MISG        N/A                   
$$

SUPPLEMENTAL OBSERVATIONS ARE A COLLECTION OF AUTOMATED INSTRUMENTS
THAT ARE MAINTAINED BY A VARIETY OF FEDERAL AND STATE AGENCIES. 
CERTAIN ELEMENTS...SUCH AS HUMIDITY VALUES AND SUSTAINED WIND 
SPEEDS...MAY BE APPROXIMATED.